[[{"header":{"parameterUnit":"m.s-1","parameterCategory":1,"la1":30.2992,"la2":30.254,"lo1":-89.0895,"lo2":-89.0443,"dy":0.0025,"dx":0.0025,"nx":19,"ny":19,"refTime":"2026-03-25T09:00:00:Z","depth":0,"parameterNumber":2,"parameterNumberName":"U-component_of_WINDS"},"data":[0,0,0,-0.1673,-0.1673,-0.1671,-0.1671,-0.1671,-0.1671,0,0,0,0,0,0,0,0,0,0,0,-0.1674,-0.1674,-0.1673,-0.1673,-0.1671,-0.1671,-0.1671,-0.1671,0,0,0,0,0,0,0,0,0,0,0,-0.1674,-0.1674,-0.1674,-0.1673,-0.1671,-0.1671,-0.1671,-0.1672,0,0,0,0,0,0,0,0,0,0,-0.1673,-0.1675,-0.1674,-0.1674,-0.1673,-0.1671,-0.1671,-0.1672,-0.1672,-0.1673,0,-0.1673,0,-0.1672,-0.1671,-0.1671,0,0,0,-0.1672,-0.1675,-0.1674,-0.1674,-0.1673,-0.1671,-0.1672,-0.1672,-0.1671,-0.1673,-0.1673,-0.1673,-0.1672,-0.1671,-0.1671,-0.1678,-0.1678,0,0,-0.1672,-0.1674,-0.1674,-0.1674,-0.1673,-0.1672,-0.1672,-0.1671,-0.1672,-0.1673,-0.1673,-0.1672,-0.1671,-0.1671,-0.1678,-0.1678,0,0,0,-0.1673,-0.1674,-0.1673,-0.1674,-0.1673,-0.1672,-0.1671,-0.1672,-0.1672,-0.1673,-0.1672,-0.1671,-0.1671,-0.1678,-0.1678,-0.1683,0,0,0,-0.1673,-0.1675,-0.1673,-0.1674,-0.1673,-0.1673,-0.1672,-0.1672,-0.1672,-0.1672,-0.1671,-0.1671,-0.1678,-0.1678,-0.1682,-0.1685,0,0,0,-0.1674,-0.1675,-0.1675,-0.1674,-0.1674,-0.1673,-0.1672,-0.1672,-0.1671,-0.1671,-0.1671,-0.1678,-0.1678,-0.1682,-0.1684,-0.1687,0,0,0,-0.1676,-0.1678,-0.1675,-0.1678,-0.1674,-0.1675,-0.1672,-0.1673,-0.1673,-0.1671,-0.1678,-0.1678,-0.1682,-0.1684,-0.1687,-0.1691,-0.1692,0,0,-0.168,-0.1679,-0.1681,-0.1678,-0.168,-0.1675,-0.1679,-0.1678,-0.1676,-0.1678,-0.1678,-0.1682,-0.1684,-0.1687,-0.17,-0.1701,0,0,0,-0.1683,-0.1684,-0.1685,-0.1685,-0.1684,-0.1684,-0.1682,-0.1682,-0.1683,-0.1677,-0.1684,-0.1685,-0.1687,-0.1689,-0.169,-0.1692,-0.1679,-0.1679,-0.1679,-0.1692,-0.169,-0.1693,-0.1692,-0.1692,-0.1691,-0.1691,-0.1691,-0.1688,-0.169,-0.169,-0.1698,-0.17,-0.1701,-0.1703,-0.1692,-0.1692,-0.1692,-0.1692,-0.1699,-0.1701,-0.1699,-0.1701,-0.1699,-0.1701,-0.17,-0.1699,-0.1701,-0.1697,-0.1699,-0.1695,-0.1702,-0.1704,-0.1692,-0.1692,-0.1692,-0.1692,-0.1692,-0.1705,-0.1706,-0.1706,-0.1707,-0.1709,-0.1707,-0.1709,-0.1708,-0.1706,-0.1708,-0.1709,-0.1708,-0.1709,-0.1708,-0.1708,-0.1708,-0.1708,-0.1708,-0.1708,-0.1712,-0.1711,-0.1713,-0.1714,-0.1714,-0.1715,-0.1715,-0.1715,-0.1716,-0.1715,-0.1715,-0.1713,-0.1703,-0.1701,-0.1709,-0.1709,-0.1709,-0.1709,-0.1709,-0.172,-0.1718,-0.1721,-0.1722,-0.1723,-0.1725,-0.1723,-0.1726,-0.1726,-0.1728,-0.1726,-0.1719,-0.1717,-0.1716,-0.1715,-0.1726,-0.1726,-0.1726,-0.1726,-0.1725,-0.1724,-0.1728,-0.173,-0.1731,-0.173,-0.1735,-0.1735,-0.1735,-0.1736,-0.1734,-0.1731,-0.1731,-0.173,-0.1729,-0.1727,-0.1741,-0.1741,-0.1741,-0.173,-0.173,-0.1734,-0.1734,-0.1735,-0.1736,-0.1741,-0.1744,-0.1743,-0.1742,-0.1736,-0.1736,-0.1732,-0.173,-0.1728,-0.1726,-0.1723,0,0]},{"header":{"parameterUnit":"m.s-1","parameterCategory":1,"la1":30.2992,"la2":30.254,"lo1":-89.0895,"lo2":-89.0443,"dy":0.0025,"dx":0.0025,"nx":19,"ny":19,"refTime":"2026-03-25T09:00:00:Z","depth":0,"parameterNumber":3,"parameterNumberName":"V-component_of_WINDS"},"data":[0,0,0,3.6249,3.625,3.6279,3.6279,3.6329,3.633,0,0,0,0,0,0,0,0,0,0,0,3.6249,3.625,3.6249,3.625,3.6279,3.6279,3.6329,3.633,0,0,0,0,0,0,0,0,0,0,0,3.6249,3.625,3.6251,3.625,3.6279,3.6279,3.6329,3.6302,0,0,0,0,0,0,0,0,0,0,3.6272,3.628,3.625,3.6251,3.6251,3.6279,3.6279,3.6301,3.6304,3.6321,0,3.634,0,3.6336,3.6334,3.6334,0,0,0,3.6244,3.6278,3.6278,3.6251,3.6251,3.6279,3.6264,3.6302,3.6306,3.6326,3.6341,3.6342,3.6337,3.6334,3.6334,3.6459,3.646,0,0,3.6242,3.6259,3.6275,3.6281,3.6278,3.6264,3.6265,3.6304,3.6321,3.6341,3.6343,3.6337,3.6335,3.6335,3.6458,3.6459,0,0,0,3.6242,3.6258,3.6257,3.6279,3.6283,3.6265,3.6267,3.632,3.6318,3.6343,3.6338,3.6335,3.6336,3.6457,3.6458,3.6519,0,0,0,3.6241,3.6258,3.6257,3.6267,3.6283,3.6302,3.6281,3.6315,3.6319,3.6338,3.6335,3.6336,3.6456,3.6458,3.6515,3.6544,0,0,0,3.6244,3.6258,3.6265,3.6268,3.6281,3.6301,3.6301,3.6316,3.6316,3.6334,3.6336,3.6455,3.6457,3.6511,3.6539,3.6582,0,0,0,3.6253,3.6318,3.6267,3.6337,3.6281,3.6338,3.6301,3.6342,3.6365,3.6335,3.6456,3.6458,3.651,3.6535,3.6579,3.6622,3.6642,0,0,3.6345,3.633,3.637,3.6324,3.6395,3.6332,3.6411,3.6416,3.6402,3.6441,3.6443,3.6516,3.6538,3.6581,3.6745,3.676,0,0,0,3.6405,3.6434,3.6449,3.6471,3.6476,3.6483,3.6474,3.6476,3.6507,3.6426,3.6543,3.6555,3.658,3.66,3.6613,3.6633,3.6468,3.6468,3.6468,3.6558,3.6537,3.6602,3.6584,3.6607,3.6596,3.6612,3.6612,3.6584,3.6612,3.6624,3.6725,3.6749,3.6759,3.678,3.6645,3.6645,3.6645,3.6645,3.6691,3.6729,3.669,3.6739,3.6716,3.6756,3.6748,3.6727,3.6761,3.6715,3.6736,3.6687,3.6777,3.6795,3.6649,3.6649,3.6648,3.6648,3.6647,3.6789,3.6804,3.6805,3.6835,3.686,3.6839,3.6874,3.6851,3.683,3.6851,3.686,3.6859,3.6856,3.6857,3.6857,3.6857,3.6858,3.6858,3.6858,3.6892,3.6891,3.6923,3.6934,3.6945,3.6957,3.6946,3.6956,3.6962,3.6943,3.6943,3.6912,3.679,3.676,3.6864,3.6863,3.6862,3.6861,3.6861,3.7035,3.6999,3.7049,3.706,3.707,3.7097,3.7067,3.709,3.7095,3.7113,3.7077,3.699,3.6974,3.6963,3.6938,3.7082,3.7081,3.7082,3.7082,3.7119,3.7108,3.7154,3.7173,3.7189,3.7168,3.7224,3.7216,3.7202,3.7204,3.718,3.7145,3.7135,3.7124,3.711,3.7086,3.7264,3.7264,3.7264,3.7206,3.7196,3.7249,3.7235,3.724,3.7246,3.7298,3.7322,3.7298,3.7271,3.7205,3.7197,3.714,3.7123,3.7095,3.7073,3.7029,0,0]}]]